STARLINK-31862, 59786

Orbit data source: Space-Track

STARLINK-31862, 59786 is a payload satellite owned by SpaceX/Seattle (US) in LEO that was launched on Sat, 18 May 2024 UTC via an FALCON 9 launch vehicle from the Air Force Eastern Test Range (AFETR). Payloads include a variety of satellites, spacecraft, and rockets equipped with specific instruments for various scientific and technological missions. These include communications satellites like Starlink; space stations such as the ISS; scientific satellites like the Hubble; Earth observation satellites from companies like Planet Labs, Umbra, and HawkEye 360; GPS; miniature CubeSats for education and research; and military/defense satellites.

Loading next visibility...
STARLINK-31862 details
Identifier
59786, 2024-093E
Orbit
LEO
Last TLE update21 hours ago
Origin
Flag of USSpaceX/Seattle (US)
ManufacturerSpaceX/Seattle
MissionOperational spacecraft
Bus & MotorSTARLINK V2M, Unknown motor
Mass730 kg wet, ~700 kg dry
Launch date (UTC)
2024-05-18 (8 months ago)
Launch vehicle
FALCON 9
Launch site
Air Force Eastern Test Range (AFETR)
Object type
Payload
Rocket body
Debris
Shape & HBRUnknown
Radar Cross SectionLarge (>1 m²)

Expand to show TLE details & history

TLE from 21 hours ago
0 STARLINK-31862
1 59786U 24093E   25014.42427704 -.00002911  00000-0 -62455-4 0  9996
2 59786  43.0008  61.9340 0002035 277.0591  83.0034 15.40688565 38362
Epoch: 2025-01-14T10:10Z
Definitive object data (Epoch: 2025-01-14T10:10:57.536Z)
Latitude-0.00001°
Longitude155.06308°
Altitude443.681 km
Speed7.648 km/s
True Right ascension04h 07m 44s
True Declination0° 00' 00"
Sunlit
Object was in full shadow at TLE epoch
Visualization TLE readout
Latitude36.31273°
Longitude-81.51994°
Altitude447.119 km
Speed7.649 km/s
Apparent Right ascension15h 39m 45s
Apparent Declination0° 28' 05"
Sunlit
Object is in full shadow
Visualization observer readout
Local Sidereal Time07:35:08
Azimuth69.164° E
Elevation-23.705°
Doppler factor1
Orbital elements
Apogee altitude447.421 km
Perigee altitude444.643 km
Semi-major axis6,824.169 km
Eccentricity0.0002035
Inclination43.0008°
RAAN61.934°
Arg. of periapsis277.0591°
True anomaly83.02655°
Mean anomaly83.0034°
Eccentric anomaly83.01497°
Mean motion3.85007 °/min
BSTAR-0.000062455
Orbital period93.5 mins
Loading maneuver chart data...
Loading historical data...
Loading historical data...
Loading historical data...
Loading historical data...
Loading historical data...
Loading historical data...
Loading historical data...

STARLINK-31862 Visibility forecast

Observer location: undefined°, undefined

Span
Click to sort rows by Start time (UTC) header in descending order
Start Az.
Max El. time (UTC)
Max El. Az.
Max El.
End time (UTC)
End Az.
6 mins2025-01-15 08:15:40.829Z272.844° WNW2025-01-15 08:18:40.829Z337.386° NNW39.307°2025-01-15 08:21:40.829Z68.524° E
4 mins2025-01-15 09:55:40.829Z302.313° NW2025-01-15 09:57:40.829Z46.839° ENE37.729°2025-01-15 09:59:40.829Z85.333° E
4 mins2025-01-15 11:33:40.829Z266.932° W2025-01-15 11:35:40.829Z180.203° SSW35.382°2025-01-15 11:37:40.829Z136.195° SSE
5 mins2025-01-16 05:58:40.829Z210.409° SW2025-01-16 06:00:40.829Z140.377° SSE33.238°2025-01-16 06:03:40.829Z81.264° E
|